Weather observations for the past three days for
Carlsbad, McClellan-Palomar Airport
Imperial (Metric)
Date Time (pdt) Wind (mph) Vis. (mi.) Weather Sky Cond. Temperature (ºF) Relative Humidity Wind Chill (°F) Heat Index (°F) Pressure Precipitation (in)
Air Dwpt 6 hour altimeter (in) sea level (mb) 1 hr 3 hr 6 hr
Max. Min.
04 14:53 W 14 G 23 10.00 Fair CLR 64.9 50 59% 29.99 1015.4
04 13:53 W 12 G 20 10.00 Fair CLR 64.9 46 51% 30.01 1015.9
04 12:53 Vrbl 7 G 17 10.00 Fair CLR 64.9 48 54% 30 1015.7
04 11:53 W 8 G 18 10.00 A Few Clouds FEW029 64 48.9 58% 30.02 1016.2
04 10:53 SW 10 10.00 A Few Clouds FEW026 63 50 64 57 63% 30.02 1016.2
04 09:53 Vrbl 6 10.00 Partly Cloudy FEW025 SCT034 SCT043 62.1 50 65% 30 1015.7
04 08:53 SW 9 10.00 A Few Clouds FEW027 61 50 67% 29.99 1015.4
04 07:53 Calm 10.00 Mostly Cloudy BKN049 59 51.1 75% 29.98 1015.2
04 06:53 Calm 10.00 Overcast FEW023 BKN042 OVC055 57 52 83% 29.98 1015.0
04 05:53 Calm 10.00 Mostly Cloudy BKN055 59 51.1 75% 29.97 1014.6
04 04:53 Calm 10.00 Overcast FEW026 BKN034 OVC044 59 51.1 62.1 59 75% 29.97 1014.6 0.01
04 03:53 W 5 10.00 Partly Cloudy SCT023 59 52 78% 29.97 1014.6
04 02:53 W 3 10.00 Overcast SCT023 BKN034 OVC044 59 53.1 81% 29.96 1014.2
04 01:53 N 3 10.00 Overcast BKN022 OVC037 59 55 87% 29.96 1014.3 0.01 0.01
04 00:53 W 7 10.00 Overcast FEW019 SCT023 OVC060 61 53.1 75% 29.99 1015.3
03 23:53 W 9 10.00 Overcast FEW027 OVC055 61 52 72% 29.98 1015.2
03 22:53 W 6 10.00 Overcast BKN023 BKN049 OVC055 62.1 52 64 62.1 70% 29.96 1014.2
03 21:53 W 5 10.00 Overcast FEW025 SCT030 OVC055 62.1 52 70% 29.97 1014.8
03 20:53 W 5 10.00 Overcast FEW026 OVC055 63 50 63% 29.96 1014.2
03 19:53 W 7 10.00 Overcast SCT027 OVC055 63 50 63% 29.95 1013.9
03 18:53 W 9 10.00 Overcast OVC050 63 50 63% 29.94 1013.7
03 17:53 W 12 10.00 Overcast OVC049 64 48.9 58% 29.92 1013.1
03 16:53 Vrbl 6 10.00 Overcast OVC048 63 48 66.9 63 58% 29.91 1012.8
03 15:53 W 9 10.00 Fair CLR 66 46.9 50% 29.92 1012.9
03 14:53 SW 10 10.00 A Few Clouds FEW039 FEW049 66 46.9 50% 29.93 1013.3
03 13:53 NW 8 10.00 Mostly Cloudy FEW028 SCT039 BKN048 64.9 50 59% 29.94 1013.6
03 12:53 W 9 10.00 Overcast BKN036 OVC045 64 50 60% 29.95 1014.1
03 11:53 Vrbl 6 10.00 Overcast OVC040 64 51.1 63% 29.96 1014.2
03 10:53 W 8 10.00 Overcast FEW020 OVC037 63 53.1 64 59 70% 29.96 1014.2
03 09:53 S 5 10.00 Overcast SCT018 OVC037 63 53.1 70% 29.95 1014.0
03 08:53 Vrbl 5 10.00 Overcast FEW015 OVC035 62.1 54 75% 29.94 1013.7
03 07:53 W 6 10.00 Overcast SCT014 OVC033 61 54 78% 29.94 1013.7
03 06:53 W 6 10.00 Overcast OVC033 61 54 78% 29.93 1013.4
03 05:53 W 7 10.00 Overcast OVC021 60.1 55 84% 29.91 1012.7
03 04:53 W 7 10.00 Overcast BKN009 OVC016 59 55.9 61 59 90% 29.9 1012.4
03 03:53 W 3 10.00 Overcast OVC015 60.1 55 84% 29.9 1012.4
03 02:53 SW 5 10.00 Overcast OVC014 61 55 81% 29.9 1012.3
03 01:53 SW 5 10.00 Overcast OVC012 61 55.9 84% 29.91 1012.8
03 00:53 S 5 10.00 Overcast OVC011 61 55.9 84% 29.93 1013.2
02 23:53 S 6 10.00 Overcast OVC010 61 55.9 84% 29.93 1013.4
02 22:53 SW 5 10.00 Overcast OVC010 61 57 63 61 87% 29.92 1013.0
02 21:53 Calm 10.00 Overcast OVC011 61 55.9 84% 29.9 1012.4
02 20:53 Calm 10.00 Overcast OVC011 61 55.9 84% 29.87 1011.4
02 19:53 Calm 10.00 Overcast OVC011 61 55 81% 29.87 1011.1
02 18:53 W 5 10.00 Overcast OVC011 62.1 55.9 80% 29.86 1011.0
02 17:53 W 6 10.00 Overcast OVC011 62.1 55.9 80% 29.86 1010.8
02 16:53 W 8 10.00 Overcast OVC011 63 57 66 63 81% 29.86 1010.9
02 15:53 W 8 10.00 Overcast OVC011 64 57 78% 29.87 1011.2
02 14:53 W 8 10.00 Overcast OVC012 64 57 78% 29.89 1012.1
02 13:53 W 8 10.00 Mostly Cloudy BKN015 66 57.9 75% 29.9 1012.4
02 12:53 NW 6 G 16 10.00 Mostly Cloudy BKN016 64.9 57.9 78% 29.92 1012.9
02 11:53 SW 12 G 18 10.00 Overcast OVC014 66 57.9 75% 29.93 1013.5
02 10:53 Calm 10.00 Overcast OVC016 64 55.9 64.9 61 75% 29.95 1013.9
02 09:53 Vrbl 3 10.00 Overcast OVC014 63 55.9 78% 29.97 1014.5
02 08:53 NW 5 10.00 Overcast OVC012 62.1 55.9 80% 29.96 1014.5
02 07:53 NW 3 9.00 Overcast OVC012 62.1 57.9 86% 29.96 1014.3
02 06:53 Vrbl 3 6.00 Fog/Mist OVC010 61 57.9 90% 29.94 1013.7
02 05:53 Calm 8.00 Overcast OVC010 62.1 57 84% 29.93 1013.5
02 04:53 SE 5 10.00 Overcast OVC011 62.1 57 63 61 84% 29.92 1013.1
02 03:53 Calm 10.00 Overcast OVC011 62.1 57 84% 29.92 1013.0
02 02:53 Calm 10.00 Overcast OVC011 62.1 57 84% 29.91 1012.8
02 01:53 NE 3 10.00 Overcast OVC012 62.1 57 84% 29.92 1012.8
02 00:53 Vrbl 3 10.00 Overcast OVC012 62.1 57 84% 29.94 1013.6
01 23:53 Vrbl 3 10.00 Overcast OVC012 62.1 57 84% 29.94 1013.7
01 22:53 Calm 10.00 Overcast OVC012 63 57 66 62.1 81% 29.94 1013.7
01 21:53 SW 5 10.00 Overcast OVC012 63 57 81% 29.94 1013.6
01 20:53 SW 3 10.00 Overcast OVC013 63 57 81% 29.93 1013.3
01 19:53 Vrbl 6 10.00 Overcast OVC013 63 57 81% 29.91 1012.8
01 18:53 W 9 10.00 Partly Cloudy SCT016 64 55.9 75% 29.9 1012.3
01 17:53 W 8 10.00 Partly Cloudy SCT016 64.9 55.9 73% 29.89 1011.8
01 16:53 W 9 10.00 Fair CLR 66 55 66.9 63 68% 29.88 1011.8
01 15:53 SW 9 G 21 10.00 Fair CLR 66 55 68% 29.89 1012.1
Date Time (pdt) Wind (mph) Vis. (mi.) Weather Sky Cond. Air Dwpt Max. Min. Relative Humidity Wind Chill (°F) Heat Index (°F) altimeter (in) sea level (mb) 1 hr 3 hr 6 hr
6 hour
Temperature (ºF) Pressure Precipitation (in)